Total_Precipitation_Accumulation
0.94 0.91 0.93 0.96 1.07 1.20 1.30 1.49 1.68 1.68 1.48 1.26 1.23 1.20 1.12 1.19 1.43 1.20 1.08 1.11 1.02 0.93 0.92 0.90 0.88 0.86 0.86 0.86 0.87 0.93 0.99 1.09 1.25 1.39 1.54 1.70 1.81 1.88
0.89 0.84 0.82 0.84 0.89 0.97 1.05 1.18 1.36 1.51 1.46 1.21 1.09 1.03 1.01 1.01 1.27 1.09 1.09 1.09 0.92 0.79 0.73 0.73 0.74 0.73 0.72 0.73 0.73 0.77 0.82 0.89 1.02 1.14 1.30 1.44 1.53 1.65
0.82 0.81 0.79 0.78 0.81 0.83 0.89 0.99 1.13 1.26 1.39 1.28 1.08 0.99 0.98 1.01 1.08 1.00 0.97 0.90 0.82 0.80 0.70 0.66 0.64 0.66 0.63 0.62 0.66 0.68 0.71 0.80 0.93 1.06 1.19 1.33 1.43 1.48
0.79 0.79 0.76 0.76 0.80 0.79 0.81 0.88 1.01 1.15 1.28 1.33 1.19 1.08 1.01 0.96 0.96 0.93 0.81 0.77 0.77 0.86 0.73 0.64 0.60 0.58 0.60 0.56 0.54 0.58 0.64 0.76 0.88 0.98 1.10 1.22 1.29 1.32
0.75 0.80 0.81 0.81 0.79 0.77 0.81 0.87 0.99 1.11 1.24 1.27 1.20 1.12 1.08 1.02 1.04 0.98 0.88 0.94 0.80 0.79 0.71 0.66 0.61 0.58 0.77 0.80 0.56 0.52 0.56 0.69 0.79 0.85 0.96 1.05 1.09 1.11
0.61 0.73 0.79 0.79 0.78 0.82 0.86 0.91 0.98 1.11 1.19 1.22 1.15 1.08 1.06 1.07 1.11 1.15 1.10 1.04 0.92 0.70 0.72 0.68 0.65 0.65 0.98 1.51 0.97 0.66 0.60 0.65 0.73 0.80 0.84 0.84 0.83 0.83
0.51 0.59 0.65 0.68 0.70 0.74 0.77 0.85 0.97 1.11 1.17 1.21 1.16 1.10 1.04 1.13 1.17 1.13 1.09 1.10 0.97 0.81 0.80 0.72 0.85 1.15 1.68 2.32 1.83 1.17 0.92 0.79 0.71 0.71 0.74 0.74 0.71 0.66
0.56 0.58 0.55 0.57 0.57 0.56 0.63 0.71 0.85 1.03 1.17 1.22 1.18 1.15 1.08 1.11 1.18 1.17 1.17 1.20 1.17 0.90 0.83 0.83 1.05 1.80 2.48 2.82 2.36 1.54 1.19 0.96 0.80 0.80 0.80 0.73 0.62 0.54
0.60 0.59 0.49 0.48 0.58 0.60 0.61 0.63 0.73 0.85 1.05 1.23 1.28 1.18 1.13 1.13 1.24 1.29 1.23 1.23 1.21 1.01 0.99 1.04 1.26 2.05 2.36 2.54 2.34 1.61 1.31 1.13 1.00 1.02 0.97 0.76 0.56 0.44
0.44 0.50 0.58 0.60 0.54 0.56 0.57 0.68 0.76 0.86 0.94 1.04 1.20 1.12 1.05 1.09 1.18 1.21 1.15 1.12 1.06 0.98 0.99 1.15 1.37 1.92 1.96 2.07 2.12 1.65 1.35 1.23 1.17 1.13 1.05 0.79 0.58 0.47
0.32 0.36 0.42 0.46 0.44 0.52 0.63 0.79 0.84 0.94 0.97 1.12 1.13 1.06 1.03 1.03 0.97 0.99 1.16 1.27 1.21 0.98 0.89 1.06 1.28 1.55 1.64 1.73 1.70 1.57 1.44 1.34 1.24 1.17 1.05 0.79 0.61 0.52
0.35 0.40 0.39 0.33 0.36 0.47 0.66 0.85 0.98 1.02 1.11 1.29 1.26 1.21 1.12 1.07 0.96 0.98 1.21 1.37 1.33 1.12 0.88 0.94 1.12 1.25 1.47 1.49 1.39 1.34 1.42 1.46 1.36 1.31 1.15 0.85 0.58 0.49
0.38 0.43 0.42 0.34 0.35 0.41 0.57 0.76 0.93 0.97 1.18 1.45 1.35 1.18 1.10 1.03 1.01 1.03 1.13 1.19 1.16 1.10 0.86 0.92 1.11 1.19 1.29 1.35 1.31 1.31 1.30 1.37 1.41 1.46 1.36 1.06 0.71 0.50
0.45 0.42 0.39 0.38 0.37 0.44 0.59 0.76 0.90 1.08 1.26 1.36 1.18 1.02 0.91 0.88 0.91 0.85 0.81 0.82 0.87 0.88 0.80 0.87 1.11 1.27 1.26 1.18 1.27 1.27 1.28 1.33 1.39 1.47 1.47 1.25 0.95 0.73
0.39 0.43 0.41 0.40 0.50 0.71 0.83 0.94 1.08 1.27 1.32 1.19 1.04 0.91 0.78 0.74 0.71 0.70 0.69 0.71 0.73 0.65 0.58 0.66 0.90 1.10 1.17 1.13 1.18 1.18 1.27 1.48 1.52 1.52 1.48 1.33 1.11 0.89
0.39 0.51 0.57 0.60 0.75 0.96 1.12 1.22 1.30 1.33 1.19 1.06 0.96 0.83 0.69 0.68 0.67 0.64 0.71 0.70 0.74 0.71 0.61 0.62 0.75 0.93 1.04 1.01 1.09 1.19 1.25 1.63 1.75 1.57 1.52 1.48 1.27 1.04
0.36 0.54 0.69 0.73 0.86 1.01 1.15 1.23 1.28 1.27 1.17 1.03 0.92 0.81 0.72 0.67 0.65 0.60 0.65 0.65 0.67 0.69 0.67 0.68 0.72 0.77 0.82 0.88 1.03 1.17 1.30 1.54 1.67 1.49 1.35 1.46 1.39 1.17
0.42 0.65 0.76 0.76 0.82 0.92 1.03 1.12 1.12 1.08 1.02 0.99 0.93 0.88 0.79 0.69 0.66 0.62 0.62 0.64 0.69 0.66 0.64 0.62 0.59 0.57 0.64 0.75 0.98 1.09 1.14 1.33 1.39 1.25 1.06 1.14 1.30 1.15
0.49 0.68 0.79 0.84 0.87 0.89 0.91 0.95 1.01 1.01 0.93 0.90 0.86 0.81 0.72 0.65 0.63 0.63 0.60 0.61 0.60 0.56 0.50 0.43 0.40 0.41 0.50 0.81 1.04 1.12 1.06 1.07 1.05 1.02 0.94 0.90 1.06 1.06
0.49 0.65 0.76 0.82 0.87 0.89 0.87 0.85 0.89 0.91 0.85 0.78 0.74 0.70 0.65 0.62 0.60 0.59 0.55 0.49 0.47 0.44 0.42 0.36 0.34 0.36 0.45 0.67 1.06 1.24 1.04 0.81 0.75 0.81 0.81 0.80 0.94 1.00
0.45 0.57 0.68 0.74 0.75 0.76 0.78 0.77 0.80 0.84 0.79 0.73 0.71 0.69 0.65 0.60 0.54 0.46 0.40 0.32 0.35 0.37 0.39 0.42 0.40 0.34 0.31 0.39 0.69 0.98 1.01 0.89 0.70 0.62 0.62 0.67 0.71 0.67
0.43 0.54 0.63 0.65 0.64 0.60 0.59 0.61 0.64 0.66 0.68 0.69 0.67 0.65 0.60 0.54 0.44 0.36 0.33 0.32 0.33 0.33 0.33 0.34 0.33 0.30 0.31 0.38 0.56 0.75 0.80 0.71 0.63 0.61 0.56 0.48 0.44 0.53
0.43 0.47 0.52 0.56 0.56 0.53 0.49 0.47 0.48 0.52 0.54 0.56 0.59 0.57 0.50 0.43 0.36 0.30 0.28 0.25 0.24 0.24 0.24 0.26 0.27 0.27 0.28 0.30 0.35 0.44 0.47 0.45 0.39 0.40 0.52 0.54 0.47 0.54